TIANWANG 1A (TW-1A)
1 40928U 15051D   19309.74966797  .00002421  00000-0  59713-4 0  9990
2 40928  97.1332 337.9168 0009128 288.4745 182.9227 15.41469847230741
LAPAN A2
1 40931U 15052B   19308.14990593  .00000506  00000-0 -18695-4 0  9996
2 40931   5.9899 149.2330 0013523 313.9745  46.0045 14.76617760221769
LQSAT
1 40958U 15057A   19309.89846921 +.00000014 +00000-0 +97315-5 0  9998
2 40958 097.8844 015.1995 0018963 147.8672 212.3696 14.73094945219456
CHUBUSAT 2
1 41338U 16012B   19309.48574016 +.00000324 +00000-0 +18534-4 0  9990
2 41338 031.0041 336.3328 0013767 047.8697 312.3106 15.00204179203924
CHUBUSAT 3
1 41339U 16012C   19309.50555965  .00000331  00000-0  18965-4 0  9992
2 41339  31.0116 334.1187 0013431  54.8624 305.3268 15.00375826203922
OUFTI-1
1 41458U 16025C   19309.71925137 +.00001159 +00000-0 +62990-4 0  9999
2 41458 098.1004 043.6896 0164271 245.9474 112.4488 15.06147187193649
E-STAR-2
1 41459U 16025D   19309.90282284 +.00000592 +00000-0 +34789-4 0  9995
2 41459 098.0979 043.4585 0165412 246.8238 111.5459 15.05759224193647
AAUSAT 4
1 41460U 16025E   19309.69874546  .00001462  00000-0  76897-4 0  9994
2 41460  98.0935  44.8535 0155364 238.7713 119.8206 15.07771678193767
NUSAT 1
1 41557U 16033B   19309.92002557 +.00001187 +00000-0 +46790-4 0  9994
2 41557 097.4140 036.5947 0014385 156.3534 203.8369 15.27504704191491
BEESAT 4
1 41619U 16040W   19309.83089221 +.00001298 +00000-0 +57409-4 0  9996
2 41619 097.3519 009.3420 0009725 247.2121 112.8089 15.23434106175198
PRATHAM
1 41783U 16059A   19309.94230899 +.00000047 +00000-0 +18420-4 0  9990
2 41783 098.0509 006.3036 0032397 304.1404 055.6727 14.63018454166050
ALSAT 1N
1 41789U 16059G   19309.74282940  .00000107  00000-0  29365-4 0  9995
2 41789  98.0536   8.4127 0026941 293.4941  66.3423 14.64273556166143
NAYIF 1
1 42017U 17008BX  19309.85714472 +.00001411 +00000-0 +57890-4 0  9990
2 42017 097.3888 015.4182 0007302 046.7134 313.4712 15.25864636151292
MAX VALIER SAT
1 42778U 17036P   19309.81911484 +.00000860 +00000-0 +40303-4 0  9991
2 42778 097.3382 004.2844 0014053 092.8278 267.4567 15.22229637131554
